Find OneWeb SL0140

NORAD ID: 47288 Int'l Des: 2020-100 Owner: ONEWEB Country: UK Constellation: oneweb operational
LEOCIRCULARPOLARONEWEB_TYPE

現在のビュー

3D地球を読み込み中...

About OneWeb SL0140

OneWeb SL0140 (NORAD 47288) is a oneweb constellation satellite launched Dec 18, 2020 by ONEWEB of UK. It operates in LEO, CIRCULAR, POLAR, ONEWEB_TYPE orbit with a mass of 148.00 kg.

OneWeb SL0140について

説明を読み込み中...

次回通過

Passes for default location (London). Set your location on the main map for personalized predictions.

高度履歴

Loading altitude history...

軌道要素

1 47288U 20100AG 26194.83913120 -.00000351 00000-0 -10104-2 0 9990
2 47288 87.8962 345.3687 0002196 89.5801 270.5579 13.12444619268169
Epoch: Jul 13, 2026 • Age: 10 hours

現在のステータス

高度 1229.0 km
遠地点 / 近地点 N/A
速度 7.24 km/s
衛星直下点 -37.40°S, 138.89°E
打ち上げ日 Dec 18, 2020
運用期間 5.5 years
タイプ internet

技術仕様

分類 Payload
質量 148.00 kg
乾燥質量 140.00 kg
総質量 148.00 kg
長さ 1.30 m
直径 1.00 m
スパン 5.00 m
形状 Trapezoid+2 pan
製造者 ONEWUS
バスタイプ ARROW
フェーズステータス In Orbit
所有者/国 ONEWEB/UK

Most Searched